Date_Time,Julian_Date,Latitude,Longitude,Instrument_Depth,Water_Salinity
(yyyy-mm-dd hh:mn:ss UTC),(JD),(+ deg. North),(+ deg. East),(m),(ppt)
1983-06-23 15:00:00 UTC,2445509.125000,29.5531,-94.1969,0082,0.2170
1983-06-23 15:30:00 UTC,2445509.145833,29.5531,-94.1969,0082,0.2170
1983-06-23 16:00:00 UTC,2445509.166667,29.5531,-94.1969,0082,0.2170
1983-06-23 16:30:00 UTC,2445509.187500,29.5531,-94.1969,0082,0.2160
1983-06-23 17:00:00 UTC,2445509.208333,29.5531,-94.1969,0082,0.2150
1983-06-23 17:30:00 UTC,2445509.229167,29.5531,-94.1969,0082,0.2150
1983-06-23 18:00:00 UTC,2445509.250000,29.5531,-94.1969,0082,0.2150
1983-06-23 18:30:00 UTC,2445509.270833,29.5531,-94.1969,0082,0.2150
1983-06-23 19:00:00 UTC,2445509.291667,29.5531,-94.1969,0082,0.2140
1983-06-23 19:30:00 UTC,2445509.312500,29.5531,-94.1969,0082,0.2140
1983-06-23 20:00:00 UTC,2445509.333333,29.5531,-94.1969,0082,0.2130
1983-06-23 20:30:00 UTC,2445509.354167,29.5531,-94.1969,0082,0.2120
1983-06-23 21:00:00 UTC,2445509.375000,29.5531,-94.1969,0082,0.2110
1983-06-23 21:30:00 UTC,2445509.395833,29.5531,-94.1969,0082,0.2110
1983-06-23 22:00:00 UTC,2445509.416667,29.5531,-94.1969,0082,0.2100
1983-06-23 22:30:00 UTC,2445509.437500,29.5531,-94.1969,0082,0.2100
1983-06-23 23:00:00 UTC,2445509.458333,29.5531,-94.1969,0082,0.2090
1983-06-23 23:30:00 UTC,2445509.479167,29.5531,-94.1969,0082,0.2090
1983-06-24 00:00:00 UTC,2445509.500000,29.5531,-94.1969,0082,0.2080
1983-06-24 00:30:00 UTC,2445509.520833,29.5531,-94.1969,0082,0.2080
1983-06-24 01:00:00 UTC,2445509.541667,29.5531,-94.1969,0082,0.2080
1983-06-24 01:30:00 UTC,2445509.562500,29.5531,-94.1969,0082,0.2080
1983-06-24 02:00:00 UTC,2445509.583333,29.5531,-94.1969,0082,0.2090
1983-06-24 02:30:00 UTC,2445509.604167,29.5531,-94.1969,0082,0.2090
1983-06-24 03:00:00 UTC,2445509.625000,29.5531,-94.1969,0082,0.2090
1983-06-24 03:30:00 UTC,2445509.645833,29.5531,-94.1969,0082,0.2090
1983-06-24 04:00:00 UTC,2445509.666667,29.5531,-94.1969,0082,0.2090
1983-06-24 04:30:00 UTC,2445509.687500,29.5531,-94.1969,0082,0.2090
1983-06-24 05:00:00 UTC,2445509.708333,29.5531,-94.1969,0082,0.2080
1983-06-24 05:30:00 UTC,2445509.729167,29.5531,-94.1969,0082,0.2080
1983-06-24 06:00:00 UTC,2445509.750000,29.5531,-94.1969,0082,0.2080
1983-06-24 06:30:00 UTC,2445509.770833,29.5531,-94.1969,0082,0.2080
1983-06-24 07:00:00 UTC,2445509.791667,29.5531,-94.1969,0082,0.2080
1983-06-24 07:30:00 UTC,2445509.812500,29.5531,-94.1969,0082,0.2080
1983-06-24 08:00:00 UTC,2445509.833333,29.5531,-94.1969,0082,0.2080
1983-06-24 08:30:00 UTC,2445509.854167,29.5531,-94.1969,0082,0.2090
1983-06-24 09:00:00 UTC,2445509.875000,29.5531,-94.1969,0082,0.2090
1983-06-24 09:30:00 UTC,2445509.895833,29.5531,-94.1969,0082,0.2100
1983-06-24 10:00:00 UTC,2445509.916667,29.5531,-94.1969,0082,0.2100
1983-06-24 10:30:00 UTC,2445509.937500,29.5531,-94.1969,0082,0.2110
1983-06-24 11:00:00 UTC,2445509.958333,29.5531,-94.1969,0082,0.2120
1983-06-24 11:30:00 UTC,2445509.979167,29.5531,-94.1969,0082,0.2160
1983-06-24 12:00:00 UTC,2445510.000000,29.5531,-94.1969,0082,0.2190
1983-06-24 12:30:00 UTC,2445510.020833,29.5531,-94.1969,0082,0.2210
1983-06-24 13:00:00 UTC,2445510.041667,29.5531,-94.1969,0082,0.2230
1983-06-24 13:30:00 UTC,2445510.062500,29.5531,-94.1969,0082,0.2240
1983-06-24 14:00:00 UTC,2445510.083333,29.5531,-94.1969,0082,0.2240
1983-06-24 14:30:00 UTC,2445510.104167,29.5531,-94.1969,0082,0.2250
1983-06-24 15:00:00 UTC,2445510.125000,29.5531,-94.1969,0082,0.2260
1983-06-24 15:30:00 UTC,2445510.145833,29.5531,-94.1969,0082,0.2270
1983-06-24 16:00:00 UTC,2445510.166667,29.5531,-94.1969,0082,0.2280
1983-06-24 16:30:00 UTC,2445510.187500,29.5531,-94.1969,0082,0.2290
1983-06-24 17:00:00 UTC,2445510.208333,29.5531,-94.1969,0082,0.2300
1983-06-24 17:30:00 UTC,2445510.229167,29.5531,-94.1969,0082,0.2310
1983-06-24 18:00:00 UTC,2445510.250000,29.5531,-94.1969,0082,0.2310
1983-06-24 18:30:00 UTC,2445510.270833,29.5531,-94.1969,0082,0.2320
1983-06-24 19:00:00 UTC,2445510.291667,29.5531,-94.1969,0082,0.2320
1983-06-24 19:30:00 UTC,2445510.312500,29.5531,-94.1969,0082,0.2320
1983-06-24 20:00:00 UTC,2445510.333333,29.5531,-94.1969,0082,0.2320
1983-06-24 20:30:00 UTC,2445510.354167,29.5531,-94.1969,0082,0.2320
1983-06-24 21:00:00 UTC,2445510.375000,29.5531,-94.1969,0082,0.2320
1983-06-24 21:30:00 UTC,2445510.395833,29.5531,-94.1969,0082,0.2320
1983-06-24 22:00:00 UTC,2445510.416667,29.5531,-94.1969,0082,0.2320
1983-06-24 22:30:00 UTC,2445510.437500,29.5531,-94.1969,0082,0.2320
1983-06-24 23:00:00 UTC,2445510.458333,29.5531,-94.1969,0082,0.2310
1983-06-24 23:30:00 UTC,2445510.479167,29.5531,-94.1969,0082,0.2310
1983-06-25 00:00:00 UTC,2445510.500000,29.5531,-94.1969,0082,0.2300
1983-06-25 00:30:00 UTC,2445510.520833,29.5531,-94.1969,0082,0.2290
1983-06-25 01:00:00 UTC,2445510.541667,29.5531,-94.1969,0082,0.2280
1983-06-25 01:30:00 UTC,2445510.562500,29.5531,-94.1969,0082,0.2270
1983-06-25 02:00:00 UTC,2445510.583333,29.5531,-94.1969,0082,0.2260
1983-06-25 02:30:00 UTC,2445510.604167,29.5531,-94.1969,0082,0.2250
1983-06-25 03:00:00 UTC,2445510.625000,29.5531,-94.1969,0082,0.2240
1983-06-25 03:30:00 UTC,2445510.645833,29.5531,-94.1969,0082,0.2220
1983-06-25 04:00:00 UTC,2445510.666667,29.5531,-94.1969,0082,0.2200
1983-06-25 04:30:00 UTC,2445510.687500,29.5531,-94.1969,0082,0.2180
1983-06-25 05:00:00 UTC,2445510.708333,29.5531,-94.1969,0082,0.2170
1983-06-25 05:30:00 UTC,2445510.729167,29.5531,-94.1969,0082,0.2160
1983-06-25 06:00:00 UTC,2445510.750000,29.5531,-94.1969,0082,0.2150
1983-06-25 06:30:00 UTC,2445510.770833,29.5531,-94.1969,0082,0.2130
1983-06-25 07:00:00 UTC,2445510.791667,29.5531,-94.1969,0082,0.2110
1983-06-25 07:30:00 UTC,2445510.812500,29.5531,-94.1969,0082,0.2090
1983-06-25 08:00:00 UTC,2445510.833333,29.5531,-94.1969,0082,0.2070
1983-06-25 08:30:00 UTC,2445510.854167,29.5531,-94.1969,0082,0.2060
1983-06-25 09:00:00 UTC,2445510.875000,29.5531,-94.1969,0082,0.2050
1983-06-25 09:30:00 UTC,2445510.895833,29.5531,-94.1969,0082,0.2050
1983-06-25 10:00:00 UTC,2445510.916667,29.5531,-94.1969,0082,0.2050
1983-06-25 10:30:00 UTC,2445510.937500,29.5531,-94.1969,0082,0.2040
1983-06-25 11:00:00 UTC,2445510.958333,29.5531,-94.1969,0082,0.2020
1983-06-25 11:30:00 UTC,2445510.979167,29.5531,-94.1969,0082,0.2000
1983-06-25 12:00:00 UTC,2445511.000000,29.5531,-94.1969,0082,0.2000
1983-06-25 12:30:00 UTC,2445511.020833,29.5531,-94.1969,0082,0.0010
1983-06-25 13:00:00 UTC,2445511.041667,29.5531,-94.1969,0082,0.1970
1983-06-25 13:30:00 UTC,2445511.062500,29.5531,-94.1969,0082,0.1950
1983-06-25 14:00:00 UTC,2445511.083333,29.5531,-94.1969,0082,0.1930
1983-06-25 14:30:00 UTC,2445511.104167,29.5531,-94.1969,0082,0.1930
1983-06-25 15:00:00 UTC,2445511.125000,29.5531,-94.1969,0082,0.1940
1983-06-25 15:30:00 UTC,2445511.145833,29.5531,-94.1969,0082,0.1930
1983-06-25 16:00:00 UTC,2445511.166667,29.5531,-94.1969,0082,0.1920
1983-06-25 16:30:00 UTC,2445511.187500,29.5531,-94.1969,0082,0.1910
1983-06-25 17:00:00 UTC,2445511.208333,29.5531,-94.1969,0082,0.1900
1983-06-25 17:30:00 UTC,2445511.229167,29.5531,-94.1969,0082,0.1890
1983-06-25 18:00:00 UTC,2445511.250000,29.5531,-94.1969,0082,0.1880
1983-06-25 18:30:00 UTC,2445511.270833,29.5531,-94.1969,0082,0.1880
1983-06-25 19:00:00 UTC,2445511.291667,29.5531,-94.1969,0082,0.1890
1983-06-25 19:30:00 UTC,2445511.312500,29.5531,-94.1969,0082,0.1910
1983-06-25 20:00:00 UTC,2445511.333333,29.5531,-94.1969,0082,0.1940
1983-06-25 20:30:00 UTC,2445511.354167,29.5531,-94.1969,0082,0.1950
1983-06-25 21:00:00 UTC,2445511.375000,29.5531,-94.1969,0082,0.1950
1983-06-25 21:30:00 UTC,2445511.395833,29.5531,-94.1969,0082,0.1950
1983-06-25 22:00:00 UTC,2445511.416667,29.5531,-94.1969,0082,0.1950
1983-06-25 22:30:00 UTC,2445511.437500,29.5531,-94.1969,0082,0.1940
1983-06-25 23:00:00 UTC,2445511.458333,29.5531,-94.1969,0082,0.1920
1983-06-25 23:30:00 UTC,2445511.479167,29.5531,-94.1969,0082,0.1870
1983-06-26 00:00:00 UTC,2445511.500000,29.5531,-94.1969,0082,0.1810
1983-06-26 00:30:00 UTC,2445511.520833,29.5531,-94.1969,0082,0.1780
1983-06-26 01:00:00 UTC,2445511.541667,29.5531,-94.1969,0082,0.1760
1983-06-26 01:30:00 UTC,2445511.562500,29.5531,-94.1969,0082,0.1750
1983-06-26 02:00:00 UTC,2445511.583333,29.5531,-94.1969,0082,0.1730
1983-06-26 02:30:00 UTC,2445511.604167,29.5531,-94.1969,0082,0.1720
1983-06-26 03:00:00 UTC,2445511.625000,29.5531,-94.1969,0082,0.1720
1983-06-26 03:30:00 UTC,2445511.645833,29.5531,-94.1969,0082,0.1720
1983-06-26 04:00:00 UTC,2445511.666667,29.5531,-94.1969,0082,0.1720
1983-06-26 04:30:00 UTC,2445511.687500,29.5531,-94.1969,0082,0.1730
1983-06-26 05:00:00 UTC,2445511.708333,29.5531,-94.1969,0082,0.1740
1983-06-26 05:30:00 UTC,2445511.729167,29.5531,-94.1969,0082,0.1750
1983-06-26 06:00:00 UTC,2445511.750000,29.5531,-94.1969,0082,0.1760
1983-06-26 06:30:00 UTC,2445511.770833,29.5531,-94.1969,0082,0.1760
1983-06-26 07:00:00 UTC,2445511.791667,29.5531,-94.1969,0082,0.1770
1983-06-26 07:30:00 UTC,2445511.812500,29.5531,-94.1969,0082,0.1760
1983-06-26 08:00:00 UTC,2445511.833333,29.5531,-94.1969,0082,0.1760
1983-06-26 08:30:00 UTC,2445511.854167,29.5531,-94.1969,0082,0.1750
1983-06-26 09:00:00 UTC,2445511.875000,29.5531,-94.1969,0082,0.1750
1983-06-26 09:30:00 UTC,2445511.895833,29.5531,-94.1969,0082,0.1740
1983-06-26 10:00:00 UTC,2445511.916667,29.5531,-94.1969,0082,0.1740
1983-06-26 10:30:00 UTC,2445511.937500,29.5531,-94.1969,0082,0.1740
1983-06-26 11:00:00 UTC,2445511.958333,29.5531,-94.1969,0082,0.1730
1983-06-26 11:30:00 UTC,2445511.979167,29.5531,-94.1969,0082,0.1730
1983-06-26 12:00:00 UTC,2445512.000000,29.5531,-94.1969,0082,0.1720
1983-06-26 12:30:00 UTC,2445512.020833,29.5531,-94.1969,0082,0.1700
1983-06-26 13:00:00 UTC,2445512.041667,29.5531,-94.1969,0082,0.1650
1983-06-26 13:30:00 UTC,2445512.062500,29.5531,-94.1969,0082,0.1590
1983-06-26 14:00:00 UTC,2445512.083333,29.5531,-94.1969,0082,0.1600
1983-06-26 14:30:00 UTC,2445512.104167,29.5531,-94.1969,0082,0.1660
1983-06-26 15:00:00 UTC,2445512.125000,29.5531,-94.1969,0082,0.1700
1983-06-26 15:30:00 UTC,2445512.145833,29.5531,-94.1969,0082,0.1690
1983-06-26 16:00:00 UTC,2445512.166667,29.5531,-94.1969,0082,0.1690
1983-06-26 16:30:00 UTC,2445512.187500,29.5531,-94.1969,0082,0.1680
1983-06-26 17:00:00 UTC,2445512.208333,29.5531,-94.1969,0082,0.1670
1983-06-26 17:30:00 UTC,2445512.229167,29.5531,-94.1969,0082,0.1650
1983-06-26 18:00:00 UTC,2445512.250000,29.5531,-94.1969,0082,0.1670
1983-06-26 18:30:00 UTC,2445512.270833,29.5531,-94.1969,0082,0.1700
1983-06-26 19:00:00 UTC,2445512.291667,29.5531,-94.1969,0082,0.1710
1983-06-26 19:30:00 UTC,2445512.312500,29.5531,-94.1969,0082,0.1700
1983-06-26 20:00:00 UTC,2445512.333333,29.5531,-94.1969,0082,0.1690
1983-06-26 20:30:00 UTC,2445512.354167,29.5531,-94.1969,0082,0.1680
1983-06-26 21:00:00 UTC,2445512.375000,29.5531,-94.1969,0082,0.1730
1983-06-26 21:30:00 UTC,2445512.395833,29.5531,-94.1969,0082,0.1840
1983-06-26 22:00:00 UTC,2445512.416667,29.5531,-94.1969,0082,0.1930
1983-06-26 22:30:00 UTC,2445512.437500,29.5531,-94.1969,0082,0.1970
1983-06-26 23:00:00 UTC,2445512.458333,29.5531,-94.1969,0082,0.1980
1983-06-26 23:30:00 UTC,2445512.479167,29.5531,-94.1969,0082,0.1980
1983-06-27 00:00:00 UTC,2445512.500000,29.5531,-94.1969,0082,0.0010
1983-06-27 00:30:00 UTC,2445512.520833,29.5531,-94.1969,0082,0.0010
1983-06-27 01:00:00 UTC,2445512.541667,29.5531,-94.1969,0082,0.1980
1983-06-27 01:30:00 UTC,2445512.562500,29.5531,-94.1969,0082,0.1980
1983-06-27 02:00:00 UTC,2445512.583333,29.5531,-94.1969,0082,0.1970
1983-06-27 02:30:00 UTC,2445512.604167,29.5531,-94.1969,0082,0.1960
1983-06-27 03:00:00 UTC,2445512.625000,29.5531,-94.1969,0082,0.1910
1983-06-27 03:30:00 UTC,2445512.645833,29.5531,-94.1969,0082,0.1830
1983-06-27 04:00:00 UTC,2445512.666667,29.5531,-94.1969,0082,0.1760
1983-06-27 04:30:00 UTC,2445512.687500,29.5531,-94.1969,0082,0.1720
1983-06-27 05:00:00 UTC,2445512.708333,29.5531,-94.1969,0082,0.1710
1983-06-27 05:30:00 UTC,2445512.729167,29.5531,-94.1969,0082,0.1730
1983-06-27 06:00:00 UTC,2445512.750000,29.5531,-94.1969,0082,0.1790
1983-06-27 06:30:00 UTC,2445512.770833,29.5531,-94.1969,0082,0.1850
1983-06-27 07:00:00 UTC,2445512.791667,29.5531,-94.1969,0082,0.1910
1983-06-27 07:30:00 UTC,2445512.812500,29.5531,-94.1969,0082,0.1940
1983-06-27 08:00:00 UTC,2445512.833333,29.5531,-94.1969,0082,0.1970
1983-06-27 08:30:00 UTC,2445512.854167,29.5531,-94.1969,0082,0.0010
1983-06-27 09:00:00 UTC,2445512.875000,29.5531,-94.1969,0082,0.0010
1983-06-27 09:30:00 UTC,2445512.895833,29.5531,-94.1969,0082,0.0010
1983-06-27 10:00:00 UTC,2445512.916667,29.5531,-94.1969,0082,0.1980
1983-06-27 10:30:00 UTC,2445512.937500,29.5531,-94.1969,0082,0.1980
1983-06-27 11:00:00 UTC,2445512.958333,29.5531,-94.1969,0082,0.1940
1983-06-27 11:30:00 UTC,2445512.979167,29.5531,-94.1969,0082,0.1770
1983-06-27 12:00:00 UTC,2445513.000000,29.5531,-94.1969,0082,0.1570
1983-06-27 12:30:00 UTC,2445513.020833,29.5531,-94.1969,0082,0.1480
1983-06-27 13:00:00 UTC,2445513.041667,29.5531,-94.1969,0082,0.1460
1983-06-27 13:30:00 UTC,2445513.062500,29.5531,-94.1969,0082,0.1500
1983-06-27 14:00:00 UTC,2445513.083333,29.5531,-94.1969,0082,0.1660
1983-06-27 14:30:00 UTC,2445513.104167,29.5531,-94.1969,0082,0.1810
1983-06-27 15:00:00 UTC,2445513.125000,29.5531,-94.1969,0082,0.1920
1983-06-27 15:30:00 UTC,2445513.145833,29.5531,-94.1969,0082,0.2000
1983-06-27 16:00:00 UTC,2445513.166667,29.5531,-94.1969,0082,0.2050
1983-06-27 16:30:00 UTC,2445513.187500,29.5531,-94.1969,0082,0.2070
1983-06-27 17:00:00 UTC,2445513.208333,29.5531,-94.1969,0082,0.2080
1983-06-27 17:30:00 UTC,2445513.229167,29.5531,-94.1969,0082,0.2080
1983-06-27 18:00:00 UTC,2445513.250000,29.5531,-94.1969,0082,0.2090
1983-06-27 18:30:00 UTC,2445513.270833,29.5531,-94.1969,0082,0.2100
1983-06-27 19:00:00 UTC,2445513.291667,29.5531,-94.1969,0082,0.2100
1983-06-27 19:30:00 UTC,2445513.312500,29.5531,-94.1969,0082,0.2100
1983-06-27 20:00:00 UTC,2445513.333333,29.5531,-94.1969,0082,0.2110
1983-06-27 20:30:00 UTC,2445513.354167,29.5531,-94.1969,0082,0.2120
1983-06-27 21:00:00 UTC,2445513.375000,29.5531,-94.1969,0082,0.2130
1983-06-27 21:30:00 UTC,2445513.395833,29.5531,-94.1969,0082,0.2140
1983-06-27 22:00:00 UTC,2445513.416667,29.5531,-94.1969,0082,0.2160
1983-06-27 22:30:00 UTC,2445513.437500,29.5531,-94.1969,0082,0.2170
1983-06-27 23:00:00 UTC,2445513.458333,29.5531,-94.1969,0082,0.2190
1983-06-27 23:30:00 UTC,2445513.479167,29.5531,-94.1969,0082,0.2200
1983-06-28 00:00:00 UTC,2445513.500000,29.5531,-94.1969,0082,0.2210
1983-06-28 00:30:00 UTC,2445513.520833,29.5531,-94.1969,0082,0.2230
1983-06-28 01:00:00 UTC,2445513.541667,29.5531,-94.1969,0082,0.2230
1983-06-28 01:30:00 UTC,2445513.562500,29.5531,-94.1969,0082,0.2230
1983-06-28 02:00:00 UTC,2445513.583333,29.5531,-94.1969,0082,0.2240
1983-06-28 02:30:00 UTC,2445513.604167,29.5531,-94.1969,0082,0.2230
1983-06-28 03:00:00 UTC,2445513.625000,29.5531,-94.1969,0082,0.2210
1983-06-28 03:30:00 UTC,2445513.645833,29.5531,-94.1969,0082,0.2170
1983-06-28 04:00:00 UTC,2445513.666667,29.5531,-94.1969,0082,0.2120
1983-06-28 04:30:00 UTC,2445513.687500,29.5531,-94.1969,0082,0.2090
1983-06-28 05:00:00 UTC,2445513.708333,29.5531,-94.1969,0082,0.2070
1983-06-28 05:30:00 UTC,2445513.729167,29.5531,-94.1969,0082,0.2040
1983-06-28 06:00:00 UTC,2445513.750000,29.5531,-94.1969,0082,0.2000
1983-06-28 06:30:00 UTC,2445513.770833,29.5531,-94.1969,0082,0.1960
1983-06-28 07:00:00 UTC,2445513.791667,29.5531,-94.1969,0082,0.1900
1983-06-28 07:30:00 UTC,2445513.812500,29.5531,-94.1969,0082,0.1660
1983-06-28 08:00:00 UTC,2445513.833333,29.5531,-94.1969,0082,0.1310
1983-06-28 08:30:00 UTC,2445513.854167,29.5531,-94.1969,0082,0.1130
1983-06-28 09:00:00 UTC,2445513.875000,29.5531,-94.1969,0082,0.1100
1983-06-28 09:30:00 UTC,2445513.895833,29.5531,-94.1969,0082,0.1110
1983-06-28 10:00:00 UTC,2445513.916667,29.5531,-94.1969,0082,0.1180
1983-06-28 10:30:00 UTC,2445513.937500,29.5531,-94.1969,0082,0.1380
1983-06-28 11:00:00 UTC,2445513.958333,29.5531,-94.1969,0082,0.1720
1983-06-28 11:30:00 UTC,2445513.979167,29.5531,-94.1969,0082,0.1970
1983-06-28 12:00:00 UTC,2445514.000000,29.5531,-94.1969,0082,0.2050
1983-06-28 12:30:00 UTC,2445514.020833,29.5531,-94.1969,0082,0.2120
1983-06-28 13:00:00 UTC,2445514.041667,29.5531,-94.1969,0082,0.2240
1983-06-28 13:30:00 UTC,2445514.062500,29.5531,-94.1969,0082,0.2330
1983-06-28 14:00:00 UTC,2445514.083333,29.5531,-94.1969,0082,0.2370
1983-06-28 14:30:00 UTC,2445514.104167,29.5531,-94.1969,0082,0.2380
1983-06-28 15:00:00 UTC,2445514.125000,29.5531,-94.1969,0082,0.2390
1983-06-28 15:30:00 UTC,2445514.145833,29.5531,-94.1969,0082,0.2420
1983-06-28 16:00:00 UTC,2445514.166667,29.5531,-94.1969,0082,0.2440
1983-06-28 16:30:00 UTC,2445514.187500,29.5531,-94.1969,0082,0.2450
1983-06-28 17:00:00 UTC,2445514.208333,29.5531,-94.1969,0082,0.2460
1983-06-28 17:30:00 UTC,2445514.229167,29.5531,-94.1969,0082,0.2460
1983-06-28 18:00:00 UTC,2445514.250000,29.5531,-94.1969,0082,0.2470
1983-06-28 18:30:00 UTC,2445514.270833,29.5531,-94.1969,0082,0.2470
1983-06-28 19:00:00 UTC,2445514.291667,29.5531,-94.1969,0082,0.2470
1983-06-28 19:30:00 UTC,2445514.312500,29.5531,-94.1969,0082,0.2460
1983-06-28 20:00:00 UTC,2445514.333333,29.5531,-94.1969,0082,0.2450
1983-06-28 20:30:00 UTC,2445514.354167,29.5531,-94.1969,0082,0.2440
1983-06-28 21:00:00 UTC,2445514.375000,29.5531,-94.1969,0082,0.2430
1983-06-28 21:30:00 UTC,2445514.395833,29.5531,-94.1969,0082,0.2420
1983-06-28 22:00:00 UTC,2445514.416667,29.5531,-94.1969,0082,0.2420
1983-06-28 22:30:00 UTC,2445514.437500,29.5531,-94.1969,0082,0.2400
1983-06-28 23:00:00 UTC,2445514.458333,29.5531,-94.1969,0082,0.2390
1983-06-28 23:30:00 UTC,2445514.479167,29.5531,-94.1969,0082,0.2400
1983-06-29 00:00:00 UTC,2445514.500000,29.5531,-94.1969,0082,0.2410
1983-06-29 00:30:00 UTC,2445514.520833,29.5531,-94.1969,0082,0.2410
1983-06-29 01:00:00 UTC,2445514.541667,29.5531,-94.1969,0082,0.2400
1983-06-29 01:30:00 UTC,2445514.562500,29.5531,-94.1969,0082,0.2410
1983-06-29 02:00:00 UTC,2445514.583333,29.5531,-94.1969,0082,0.2420
1983-06-29 02:30:00 UTC,2445514.604167,29.5531,-94.1969,0082,0.2450
1983-06-29 03:00:00 UTC,2445514.625000,29.5531,-94.1969,0082,0.2480
1983-06-29 03:30:00 UTC,2445514.645833,29.5531,-94.1969,0082,0.2490
1983-06-29 04:00:00 UTC,2445514.666667,29.5531,-94.1969,0082,0.2490
1983-06-29 04:30:00 UTC,2445514.687500,29.5531,-94.1969,0082,0.2490
1983-06-29 05:00:00 UTC,2445514.708333,29.5531,-94.1969,0082,0.2490
1983-06-29 05:30:00 UTC,2445514.729167,29.5531,-94.1969,0082,0.2490
1983-06-29 06:00:00 UTC,2445514.750000,29.5531,-94.1969,0082,0.2480
1983-06-29 06:30:00 UTC,2445514.770833,29.5531,-94.1969,0082,0.2470
1983-06-29 07:00:00 UTC,2445514.791667,29.5531,-94.1969,0082,0.2470
1983-06-29 07:30:00 UTC,2445514.812500,29.5531,-94.1969,0082,0.2470
1983-06-29 08:00:00 UTC,2445514.833333,29.5531,-94.1969,0082,0.2470
1983-06-29 08:30:00 UTC,2445514.854167,29.5531,-94.1969,0082,0.2470
1983-06-29 09:00:00 UTC,2445514.875000,29.5531,-94.1969,0082,0.2480
1983-06-29 09:30:00 UTC,2445514.895833,29.5531,-94.1969,0082,0.2490
1983-06-29 10:00:00 UTC,2445514.916667,29.5531,-94.1969,0082,0.2480
1983-06-29 10:30:00 UTC,2445514.937500,29.5531,-94.1969,0082,0.2450
1983-06-29 11:00:00 UTC,2445514.958333,29.5531,-94.1969,0082,0.2420
1983-06-29 11:30:00 UTC,2445514.979167,29.5531,-94.1969,0082,0.2410
1983-06-29 12:00:00 UTC,2445515.000000,29.5531,-94.1969,0082,0.2440
1983-06-29 12:30:00 UTC,2445515.020833,29.5531,-94.1969,0082,0.2450
1983-06-29 13:00:00 UTC,2445515.041667,29.5531,-94.1969,0082,0.2460
1983-06-29 13:30:00 UTC,2445515.062500,29.5531,-94.1969,0082,0.2470
1983-06-29 14:00:00 UTC,2445515.083333,29.5531,-94.1969,0082,0.2470
1983-06-29 14:30:00 UTC,2445515.104167,29.5531,-94.1969,0082,0.2480
1983-06-29 15:00:00 UTC,2445515.125000,29.5531,-94.1969,0082,0.2480
1983-06-29 15:30:00 UTC,2445515.145833,29.5531,-94.1969,0082,0.2470
1983-06-29 16:00:00 UTC,2445515.166667,29.5531,-94.1969,0082,0.2460
1983-06-29 16:30:00 UTC,2445515.187500,29.5531,-94.1969,0082,0.2440
1983-06-29 17:00:00 UTC,2445515.208333,29.5531,-94.1969,0082,0.2420
1983-06-29 17:30:00 UTC,2445515.229167,29.5531,-94.1969,0082,0.2420
1983-06-29 18:00:00 UTC,2445515.250000,29.5531,-94.1969,0082,0.2430
1983-06-29 18:30:00 UTC,2445515.270833,29.5531,-94.1969,0082,0.2430
1983-06-29 19:00:00 UTC,2445515.291667,29.5531,-94.1969,0082,0.2410
1983-06-29 19:30:00 UTC,2445515.312500,29.5531,-94.1969,0082,0.2390
1983-06-29 20:00:00 UTC,2445515.333333,29.5531,-94.1969,0082,0.2370
1983-06-29 20:30:00 UTC,2445515.354167,29.5531,-94.1969,0082,0.2360
1983-06-29 21:00:00 UTC,2445515.375000,29.5531,-94.1969,0082,0.2360
1983-06-29 21:30:00 UTC,2445515.395833,29.5531,-94.1969,0082,0.2370
1983-06-29 22:00:00 UTC,2445515.416667,29.5531,-94.1969,0082,0.2380
1983-06-29 22:30:00 UTC,2445515.437500,29.5531,-94.1969,0082,0.2380
1983-06-29 23:00:00 UTC,2445515.458333,29.5531,-94.1969,0082,0.2380
1983-06-29 23:30:00 UTC,2445515.479167,29.5531,-94.1969,0082,0.2380
1983-06-30 00:00:00 UTC,2445515.500000,29.5531,-94.1969,0082,0.2380
1983-06-30 00:30:00 UTC,2445515.520833,29.5531,-94.1969,0082,0.2380
1983-06-30 01:00:00 UTC,2445515.541667,29.5531,-94.1969,0082,0.2380
1983-06-30 01:30:00 UTC,2445515.562500,29.5531,-94.1969,0082,0.2380
1983-06-30 02:00:00 UTC,2445515.583333,29.5531,-94.1969,0082,0.2380
1983-06-30 02:30:00 UTC,2445515.604167,29.5531,-94.1969,0082,0.2380
1983-06-30 03:00:00 UTC,2445515.625000,29.5531,-94.1969,0082,0.2390
1983-06-30 03:30:00 UTC,2445515.645833,29.5531,-94.1969,0082,0.2390
1983-06-30 04:00:00 UTC,2445515.666667,29.5531,-94.1969,0082,0.2390
1983-06-30 04:30:00 UTC,2445515.687500,29.5531,-94.1969,0082,0.2380
1983-06-30 05:00:00 UTC,2445515.708333,29.5531,-94.1969,0082,0.2370
1983-06-30 05:30:00 UTC,2445515.729167,29.5531,-94.1969,0082,0.2370
1983-06-30 06:00:00 UTC,2445515.750000,29.5531,-94.1969,0082,0.2370
1983-06-30 06:30:00 UTC,2445515.770833,29.5531,-94.1969,0082,0.2360
1983-06-30 07:00:00 UTC,2445515.791667,29.5531,-94.1969,0082,0.2340
1983-06-30 07:30:00 UTC,2445515.812500,29.5531,-94.1969,0082,0.2340
1983-06-30 08:00:00 UTC,2445515.833333,29.5531,-94.1969,0082,0.2340
1983-06-30 08:30:00 UTC,2445515.854167,29.5531,-94.1969,0082,0.2340
1983-06-30 09:00:00 UTC,2445515.875000,29.5531,-94.1969,0082,0.2340
1983-06-30 09:30:00 UTC,2445515.895833,29.5531,-94.1969,0082,0.2350
1983-06-30 10:00:00 UTC,2445515.916667,29.5531,-94.1969,0082,0.2370
1983-06-30 10:30:00 UTC,2445515.937500,29.5531,-94.1969,0082,0.2370
1983-06-30 11:00:00 UTC,2445515.958333,29.5531,-94.1969,0082,0.2380
1983-06-30 11:30:00 UTC,2445515.979167,29.5531,-94.1969,0082,0.2390
1983-06-30 12:00:00 UTC,2445516.000000,29.5531,-94.1969,0082,0.2400
1983-06-30 12:30:00 UTC,2445516.020833,29.5531,-94.1969,0082,0.2410
1983-06-30 13:00:00 UTC,2445516.041667,29.5531,-94.1969,0082,0.2410
1983-06-30 13:30:00 UTC,2445516.062500,29.5531,-94.1969,0082,0.2410
1983-06-30 14:00:00 UTC,2445516.083333,29.5531,-94.1969,0082,0.2420
1983-06-30 14:30:00 UTC,2445516.104167,29.5531,-94.1969,0082,0.2420
1983-06-30 15:00:00 UTC,2445516.125000,29.5531,-94.1969,0082,0.2410
1983-06-30 15:30:00 UTC,2445516.145833,29.5531,-94.1969,0082,0.2410
1983-06-30 16:00:00 UTC,2445516.166667,29.5531,-94.1969,0082,0.2400
1983-06-30 16:30:00 UTC,2445516.187500,29.5531,-94.1969,0082,0.2390
1983-06-30 17:00:00 UTC,2445516.208333,29.5531,-94.1969,0082,0.2380
